Regional Weather Roundup
Issued by NWS

Home | Current Version | Previous Version | Graphics & Text | Print | Product List | Glossary On
Versions: 1 2 3 4 5 6 7 8 9 10 11 12 13 14 15 16 17 18 19 20 21 22 23 24 25 26 27 28 29 30 31 32 33 34 35 36 37 38 39 40 41 42 43 44 45 46 47 48 49 50
000
ASUS43 KLOT 221703
RWRIL

ILLINOIS REGIONAL WEATHER ROUNDUP
NATIONAL WEATHER SERVICE CHICAGO/ROMEOVILLE IL
1100 AM CST WED FEB 22 2017

NOTE: "FAIR" INDICATES FEW OR NO CLOUDS BELOW 12,000 FEET WITH NO
SIGNIFICANT WEATHER AND/OR OBSTRUCTIONS TO VISIBILITY.

* THESE STATIONS ARE NOT UNDER NWS QUALITY CONTROL. THEY ALSO MAY NOT
  REPORT WEATHER SUCH AS PRECIPITATION OR FOG.

ILZ001-002-007-009-015-016-024-221800-
NORTHWEST ILLINOIS

CITY           SKY/WX    TMP DP  RH WIND       PRES   REMARKS
MOLINE         SUNNY     63  55  75 S16G22    29.71F
STERLING*      PTSUNNY   59  56  89 SW8       29.74F
SAVANNA*       SUNNY     59  53  78 S10       29.71F
$$

ILZ003-004-008-010-011-017-018-221800-
NORTH CENTRAL ILLINOIS

CITY           SKY/WX    TMP DP  RH WIND       PRES   REMARKS
ROCKFORD       MOSUNNY   60  54  80 SW15      29.75F
FREEPORT*      MOSUNNY   56  53  89 SW16      29.73F
ROCHELLE*      CLOUDY    57  56  97 SW15      29.76F
DE KALB*       CLOUDY    56  56  97 SW15      29.77S
PERU*          CLOUDY    57  53  86 SW14      29.77F
$$

ILZ005-006-012>014-019>023-221800-
NORTHEAST ILLINOIS

CITY           SKY/WX    TMP DP  RH WIND       PRES   REMARKS
CHICAGO-OHARE  CLOUDY    58  53  84 SW12      29.76F
CHICAGO-MIDWAY CLOUDY    55  52  89 SW12      29.78F FOG
AURORA         CLOUDY    58  55  90 S15G23    29.77F FOG
LANSING*       CLOUDY    56  55  99 S10       29.80F FOG
JOLIET*        CLOUDY    56  56 100 SW7       29.79F FOG
WAUKEGAN       PTSUNNY   61  54  77 SW23      29.72F
DUPAGE AIRPORT CLOUDY    58  54  86 SW13      29.76F FOG
KANKAKEE*      CLOUDY    55  55  97 CALM      29.81F FOG
WHEELING       CLOUDY    59  53  80 S15       29.76F
MORRIS*        CLOUDY    55  54  98 SW8       29.78F FOG
ROMEOVILLE*    CLOUDY    53  53 100 SW7       29.79F FOG
NORTHERLY ISL    N/A     55  51  86 SW9         N/A
$$

LMZ740>746-221800-
SOUTHERN LAKE MICHIGAN

STATION/POSITION SKY/WX   TEMP    WIND        PRES    VSBY  WAVE
                          AIR SEA DIR/SP/G                  HT/PER
                          (F)     (DEG/KT/KT) (MB)    (MI)  (FT/S)
HARRISON CRIB              54     200/ 16/ 17   N/A
BURNHAM HARBOR             55     220/ 12       N/A
CALUMET HARBOR             53     200/ 10/ 16 1008.3F
BURNS HARBOR               55     190/ 11/ 15 1009.5F
MICHIGAN CITY              58     160/  9/ 11   N/A
$$

ILZ025>027-034>036-040-047-049-050-058-095>099-221800-
WEST-CENTRAL ILLINOIS

CITY           SKY/WX    TMP DP  RH WIND       PRES   REMARKS
QUINCY         CLOUDY    59  56  89 S13       29.78F
GALESBURG*     CLOUDY    57  57 100 S14       29.76F
MACOMB*        CLOUDY    58  58 100 SW12      29.80F FOG
JACKSONVILLE*  CLOUDY    55  55  99 SW8       29.83S FOG
PITTSFIELD*    CLOUDY    57  57 100 S8        29.83S FOG
$$

ILZ028>032-037-038-041>044-048-051>054-059>061-221800-
CENTRAL ILLINOIS

CITY           SKY/WX    TMP DP  RH WIND       PRES   REMARKS
PONTIAC        CLOUDY    56  56  98 SW12      29.80F FOG
BLOOMINGTON    FOG       56  55  97 SW13      29.81F VSB 3/4
DECATUR        SUNNY     64  55  72 SW13      29.82F
PEORIA         CLOUDY    56  56 100 S13       29.79F FOG
LACON*         CLOUDY    58  55  88 SW10      29.77F
LINCOLN*       CLOUDY    58  58 100 SW3       29.81F FOG
SPRINGFIELD    FOG       57  55  93 SW7       29.82F VSB 1
TAYLORVILLE    CLOUDY    58  56  94 SW10      29.83S FOG
$$

ILZ033-039-045-046-055>057-062-063-221800-
EAST-CENTRAL ILLINOIS

CITY           SKY/WX    TMP DP  RH WIND       PRES   REMARKS
CHAMPAIGN      MOSUNNY   64  56  75 S14       29.82F
RANTOUL*       MOSUNNY   63  57  81 SW10      29.82F
MATTOON        CLOUDY    58  56  93 S14       29.83S
$$

ILZ079-100>102-221800-
SOUTHWEST ILLINOIS

CITY           SKY/WX    TMP DP  RH WIND       PRES   REMARKS
ALTON          CLOUDY    54  54 100 SW12      29.85S FOG
BELLEVILLE     MOSUNNY   67  61  82 VRB5      29.82F
CAHOKIA*       MOSUNNY   63  55  75 SW9       29.83F
SPARTA*        SUNNY     65  56  71 SW9       29.86F
$$

ILZ064>066-069>071-074>076-080>082-084>086-088>090-092>094-221800-
SOUTH-CENTRAL ILLINOIS

CITY           SKY/WX    TMP DP  RH WIND       PRES   REMARKS
CARBONDALE     MOSUNNY   67  57  70 S10       29.86F
CAIRO*         PTSUNNY   65  59  79 SE6       29.88F
EFFINGHAM*     PTSUNNY   63  59  88 S7        29.85F
MARION         PTSUNNY   70  59  68 S6        29.88F
MT. VERNON     SUNNY     68  57  68 S13       29.85F
CENTRALIA*     MOSUNNY   67  59  74 S10       29.83F
SALEM*         MOSUNNY   66  57  71 SW12      29.84F
METROPOLIS*    CLOUDY    63  58  83 CALM      29.89F
$$

ILZ067-068-072-073-078-083-087-091-221800-
SOUTHEAST ILLINOIS

CITY           SKY/WX    TMP DP  RH WIND       PRES   REMARKS
LAWRENCEVILLE  PTSUNNY   63  59  87 S8        29.87F
FLORA*         CLOUDY    64  57  78 S12       29.86F
FAIRFIELD*     CLOUDY    64  57  80 S7        29.86F
HARRISBURG*    CLOUDY    64  58  81 CALM      29.88F
ROBINSON*      MOSUNNY   62  57  84 SW9       29.86F
CARMI*         CLOUDY    63  58  82 S8        29.87F
$$

ABBREVIATIONS USED IN REMARKS
   TC - TEMPERATURE IN CELSIUS
  WCI - WIND CHILL INDEX
   HX - HEAT INDEX
  VSB - VISIBILITY
$$





USA.gov is the U.S. government's official web portal to all federal, state and local government web resources and services.